Weather History for Abilene Dyess, TX

Change the Weather History Date:

Sunday, October 7, 2012

  Actual Average Record
Temperature  
Mean Temperature 46 °F -  
Max Temperature 48 °F 78 °F 91 °F (2011)
Min Temperature 41 °F 58 °F 41 °F (2012)
Degree Days  
Heating Degree Days 18    
Moisture  
Dew Point 32 °F    
Average Humidity 57    
Maximum Humidity 79    
Minimum Humidity 51    
Precipitation  
Precipitation 0.00 in - - ()
Sea Level Pressure  
Sea Level Pressure 30.26 in    
Wind  
Wind Speed 10 mph (NE)    
Max Wind Speed 14 mph    
Max Gust Speed -    
Visibility 10 miles    
Events      
Averages and records for this station are not official NWS values.
T = Trace of Precipitation, MM = Missing Value Source: NWS Daily Summary

Daily Weather History Graph

Daily Weather History Graph

Search for Another Location

Airport:

Trip Planner

Search our weather history database for the weather conditions in past years. The results will help you decide how hot, cold, wet, or windy it might be!

Date:

Astronomy

Oct. 07, 2012 Rise Set
Actual Time 7:37 AM CDT 7:15 PM CDT
Civil Twilight 7:13 AM CDT 7:40 PM CDT
Nautical Twilight 6:44 AM CDT 8:08 PM CDT
Astronomical Twilight 6:16 AM CDT 8:37 PM CDT
Moon No Moon Rise 2:02 PM CDT (10/7)
Length of Visible Light 12h 27m
Length of Day
11h 37m
Waning Gibbous, 56% of the Moon is Illuminated
Oct 7
Waning Gibbous
Oct 8
Last Quarter
Oct 15
New
Oct 21
First Quarter
Oct 29
Full

Hourly Weather History & Observations

Time (CDT) Temp. Windchill Dew Point Humidity Pressure Visibility Wind Dir Wind Speed Gust Speed Precip Events Conditions
12:55 AM 45.7 °F 39.5 °F 34.0 °F 64% 30.27 in 10.0 mi NE 13.8 mph - N/A   Overcast
1:13 AM 46.4 °F 40.7 °F 33.8 °F 62% 30.27 in 10.0 mi NE 12.7 mph - N/A   Overcast
1:55 AM 45.7 °F 40.2 °F 31.5 °F 58% 30.27 in 10.0 mi NE 11.5 mph - N/A   Overcast
2:55 AM 45.9 °F 41.2 °F 31.3 °F 57% 30.27 in 10.0 mi NE 9.2 mph - N/A   Overcast
3:55 AM 45.9 °F 40.4 °F 30.9 °F 56% 30.27 in 10.0 mi NE 11.5 mph - N/A   Overcast
4:55 AM 45.5 °F 39.9 °F 31.8 °F 59% 30.27 in 10.0 mi NNE 11.5 mph - N/A   Overcast
5:55 AM 45.3 °F 40.6 °F 32.0 °F 60% 30.28 in 10.0 mi NE 9.2 mph - N/A   Overcast
6:55 AM 45.1 °F 39.5 °F 32.2 °F 60% 30.29 in 10.0 mi NE 11.5 mph - N/A   Overcast
7:55 AM 45.1 °F 40.8 °F 32.5 °F 61% 30.28 in 10.0 mi ENE 8.1 mph - N/A   Overcast
8:55 AM 45.1 °F 39.9 °F 33.4 °F 64% 30.31 in 10.0 mi NE 10.4 mph - N/A   Overcast
9:55 AM 45.5 °F 39.9 °F 31.8 °F 59% 30.32 in 10.0 mi NE 11.5 mph - N/A   Overcast
10:55 AM 45.9 °F 40.4 °F 30.6 °F 55% 30.31 in 10.0 mi NE 11.5 mph - N/A   Overcast
11:55 AM 47.5 °F - 31.1 °F 53% 30.29 in 10.0 mi NE 8.1 mph - N/A   Overcast
12:55 PM 48.2 °F - 32.4 °F 54% 30.28 in 10.0 mi ENE 8.1 mph - N/A   Overcast
1:55 PM 48.4 °F - 31.6 °F 52% 30.25 in 10.0 mi NNE 9.2 mph - N/A   Overcast
2:55 PM 48.2 °F - 31.6 °F 53% 30.23 in 10.0 mi ENE 6.9 mph - N/A   Overcast
3:55 PM 48.4 °F - 30.9 °F 51% 30.22 in 10.0 mi NNE 9.2 mph - N/A   Overcast
4:55 PM 47.7 °F - 30.9 °F 52% 30.21 in 10.0 mi NNE 10.4 mph - N/A   Overcast
5:55 PM 47.5 °F - 30.4 °F 52% 30.22 in 10.0 mi NNE 8.1 mph - N/A   Overcast
6:55 PM 46.9 °F - 30.6 °F 53% 30.23 in 10.0 mi NE 8.1 mph - N/A   Overcast
7:55 PM 46.8 °F - 31.5 °F 55% 30.23 in 10.0 mi NE 4.6 mph - N/A   Overcast
8:55 PM 46.8 °F - 31.3 °F 55% 30.25 in 10.0 mi NE 6.9 mph - N/A   Overcast
9:55 PM 46.6 °F - 31.3 °F 55% 30.24 in 10.0 mi ESE 3.5 mph - N/A   Overcast
10:55 PM 45.3 °F - 31.5 °F 58% 30.25 in 10.0 mi Calm Calm - N/A   Scattered Clouds
11:55 PM 41.2 °F - 35.2 °F 79% 30.25 in 10.0 mi Calm Calm - N/A   Clear